Probability
1 2 2 1 0 0 1 2 2 1 0 0 0 0 0 0 0 0 0 0 0 0 0 0 0 0 0 0 0 0 0 0 0 0 0 0 0 0 0 0 0 0 0
0 1 1 0 0 0 0 1 2 1 0 0 0 0 0 0 0 0 0 0 0 0 0 0 0 0 0 0 0 0 0 0 0 0 0 0 0 0 0 0 0 0 0
0 0 0 0 0 0 0 0 1 1 0 0 0 0 0 0 0 0 0 0 0 0 0 1 1 0 0 0 0 0 0 0 0 0 0 0 0 0 0 0 0 0 0
0 0 0 0 0 0 0 0 0 0 0 0 0 0 0 0 0 0 0 0 0 0 0 1 2 1 1 0 0 0 0 0 0 0 0 0 0 0 0 0 0 0 0
0 0 0 0 0 0 0 0 0 0 0 0 0 0 0 0 0 0 0 0 0 0 0 1 2 2 1 0 0 0 0 0 0 0 0 0 0 0 0 0 0 0 0
0 0 0 0 0 0 0 0 0 0 0 0 0 0 0 0 0 0 0 0 0 0 0 1 2 2 1 0 0 0 0 0 0 0 0 0 0 0 0 0 0 0 0
0 0 0 0 0 0 0 0 0 0 0 0 0 0 0 0 0 0 0 0 0 0 0 0 1 1 0 0 0 0 0 0 0 0 0 0 0 0 0 0 0 0 0
0 0 0 0 0 0 0 0 0 0 0 0 0 0 0 0 0 0 0 0 0 0 0 0 0 0 0 0 0 0 0 0 0 0 0 0 0 0 0 0 0 0 0
0 0 0 0 0 0 0 0 0 0 0 0 0 0 0 0 0 0 0 0 0 0 0 0 0 0 0 0 0 0 0 0 0 0 0 0 0 0 0 0 0 0 0
0 0 0 0 0 0 0 0 0 0 0 0 0 0 0 0 0 0 0 0 0 0 0 0 0 0 0 0 0 0 0 0 0 0 0 0 0 0 0 0 0 0 0
0 0 0 0 0 0 0 0 0 0 0 0 0 0 0 0 0 0 0 0 0 0 0 0 0 0 0 0 0 0 0 0 0 0 0 0 0 0 0 0 0 0 0
0 0 0 0 0 0 0 0 0 0 0 0 0 0 0 0 0 0 0 0 0 0 0 0 0 0 0 0 0 0 0 0 0 0 0 0 0 0 0 0 0 0 0
0 0 0 0 0 0 0 0 0 0 0 0 0 0 0 0 0 0 0 0 0 0 0 0 0 0 0 0 0 0 0 0 0 0 0 0 0 0 0 0 0 0 0
0 0 0 0 0 0 0 0 0 0 0 0 0 0 0 0 0 0 0 0 0 0 0 0 0 0 0 0 0 0 0 0 0 0 0 0 0 0 0 0 0 0 0
0 0 0 0 0 0 0 0 0 0 0 0 0 0 0 0 0 0 0 0 0 0 0 0 0 0 0 0 0 0 0 0 0 0 0 0 0 0 0 0 0 0 0
0 0 0 0 0 0 0 0 0 0 0 0 0 0 0 0 0 0 0 0 0 0 0 0 0 0 0 0 0 0 0 0 0 0 0 0 0 0 0 0 0 0 0
0 0 0 0 0 0 0 0 0 0 0 0 0 0 0 0 0 0 0 0 0 0 0 0 0 0 0 0 0 0 0 0 0 0 0 0 0 0 0 0 0 0 0
0 0 0 0 0 0 0 0 0 0 0 0 0 0 0 0 0 0 0 0 0 0 0 0 0 0 0 0 0 0 0 0 0 0 0 0 0 0 0 0 0 0 0
0 0 0 0 0 0 0 0 0 0 0 0 0 0 0 0 0 0 0 0 0 0 0 0 0 0 0 0 0 0 0 0 0 0 0 0 0 0 0 0 0 0 0
0 0 0 0 0 0 0 0 0 0 0 0 0 0 0 0 0 0 0 0 0 0 0 0 0 0 0 0 0 0 0 0 0 0 0 0 0 0 0 0 0 0 0
0 0 0 0 0 0 0 0 0 0 0 0 0 0 0 0 0 0 0 0 0 0 0 0 0 0 0 0 0 0 0 0 0 0 0 0 0 0 0 0 0 0 0
0 0 0 0 0 0 0 0 0 0 0 0 0 0 0 0 0 0 0 0 0 0 0 0 0 0 0 0 0 0 0 0 0 0 0 0 0 0 0 0 0 0 0
0 0 0 0 0 0 0 0 0 0 0 0 0 0 0 0 0 0 0 0 0 0 0 0 0 0 0 0 0 0 0 0 0 0 0 0 0 0 0 0 0 0 0
0 0 0 0 0 0 0 0 0 0 0 0 0 0 0 0 0 0 0 0 0 0 0 0 0 0 0 0 0 0 0 0 0 0 0 0 0 0 0 0 0 0 0
0 0 0 0 0 0 0 0 0 0 0 0 0 0 0 0 0 0 0 0 0 0 0 0 0 0 0 0 0 0 0 0 0 0 0 0 0 0 0 0 0 0 0
0 0 0 0 0 0 0 0 0 0 0 0 0 0 0 0 0 0 0 0 0 0 0 0 0 0 0 0 0 0 0 0 0 0 0 0 0 0 0 0 0 0 0
Wind_Speed
5 5 5 4 4 4 4 4 4 5 5 5 5 5 5 5 5 4 4 4 4 4 4 4 5 4 3 3 3 3 3 3 6 5 3 2 3 3 3 3 3 3 4
5 5 5 5 4 5 4 5 4 5 4 4 5 5 5 5 5 5 5 5 5 5 5 4 5 4 4 3 3 3 3 3 4 6 4 3 3 3 3 3 4 3 4
5 5 5 5 5 5 5 5 5 5 5 5 5 5 5 5 5 5 5 5 5 5 4 4 4 4 4 3 3 3 3 3 3 4 5 3 3 2 3 3 4 3 4
4 4 4 5 5 5 5 5 5 5 5 5 5 5 5 5 5 5 5 5 5 5 4 4 4 4 4 4 4 4 4 4 4 4 4 4 3 2 2 3 4 3 4
3 4 4 4 4 4 5 5 5 5 5 5 5 5 5 5 5 6 5 5 5 5 5 4 5 5 5 5 4 4 4 4 4 4 5 4 4 3 3 3 4 4 4
3 3 4 4 4 5 5 5 5 5 5 5 5 5 5 5 8 9 7 5 5 5 5 5 5 4 5 6 7 6 6 5 5 5 5 6 6 4 3 3 4 4 5
3 3 4 4 4 5 5 5 5 5 5 5 5 5 6 7 9 9 9 6 5 5 5 5 5 4 5 5 6 6 6 7 7 7 7 7 6 5 4 5 5 5 6
3 4 4 4 5 5 5 5 5 5 5 5 6 5 5 6 9 9 9 6 5 5 5 5 5 5 5 6 5 5 5 5 6 5 5 6 5 5 5 5 6 5 5
4 4 4 4 5 5 5 5 5 5 5 5 5 5 6 7 8 9 9 5 4 6 5 5 6 6 7 8 6 6 6 5 5 6 6 6 7 6 5 3 3 3 5
4 4 4 4 4 5 5 5 5 5 5 6 6 5 6 6 8 9 9 4 5 5 5 5 6 8 9 9 6 5 6 6 5 5 5 6 5 4 5 3 3 3 4
5 5 4 4 4 4 4 5 5 5 5 5 6 5 5 6 8 9 9 5 5 6 5 5 5 9 11 11 9 6 7 7 5 4 4 4 3 3 3 3 3 3 4
5 5 5 5 4 4 4 4 4 5 5 5 5 5 4 5 6 8 11 10 8 6 6 5 6 10 11 11 8 7 8 7 3 3 3 4 3 3 3 3 3 3 4
5 5 5 5 4 4 4 4 4 4 4 4 4 5 5 4 5 10 10 11 10 7 5 9 11 11 10 7 7 8 6 3 3 3 4 4 4 3 3 3 3 3 3
5 5 5 4 5 4 4 3 3 3 4 4 4 5 5 5 4 5 5 5 6 6 5 6 8 9 7 7 6 5 4 3 3 3 4 4 4 3 3 2 2 2 3
5 4 4 4 4 4 4 3 4 4 5 5 4 4 5 5 7 11 8 6 5 5 5 4 4 4 4 4 4 3 3 3 3 3 3 4 4 4 3 3 2 2 2
4 4 3 3 3 3 4 5 7 7 9 9 9 8 6 8 12 11 11 11 10 8 5 3 3 4 4 4 4 4 4 4 3 3 3 3 4 4 4 3 2 2 3
4 4 3 3 3 3 3 4 5 6 8 9 9 10 9 11 11 11 11 10 9 7 3 2 3 3 4 4 4 4 4 4 4 3 3 3 3 3 3 3 3 2 3
4 3 3 3 3 3 3 3 3 4 5 6 7 10 11 11 11 11 10 7 5 5 2 3 3 3 4 4 4 4 4 4 3 3 3 3 3 3 3 3 3 3 3
3 3 2 2 2 2 3 3 3 3 4 5 5 6 8 10 10 10 9 3 3 4 3 3 3 3 4 4 4 4 4 4 4 3 3 3 3 3 3 3 3 3 3
2 3 3 2 2 2 2 2 2 3 3 4 4 5 5 5 4 5 4 3 3 3 4 4 4 3 4 4 4 4 4 4 4 3 3 3 3 3 3 3 3 3 3
2 2 3 2 2 2 2 2 2 3 3 4 4 6 8 4 4 4 4 4 4 4 4 4 4 4 3 3 3 4 4 4 3 3 3 3 3 3 3 3 3 3 3
1 2 2 2 2 2 2 2 2 3 3 4 4 5 8 5 4 4 4 4 4 4 4 4 4 3 3 3 3 4 4 4 4 3 3 3 3 3 3 3 3 3 2
1 1 2 2 2 2 2 2 2 2 3 4 4 4 4 4 4 4 5 5 5 4 4 3 4 4 4 4 3 4 4 5 4 4 4 3 3 3 2 3 3 3 3
1 1 2 2 2 2 2 2 2 3 3 4 4 4 4 4 4 5 5 5 5 5 4 4 4 5 7 5 4 4 4 5 4 4 4 4 3 3 3 3 3 3 3
1 2 2 2 2 2 2 3 3 3 3 4 4 4 4 4 5 5 5 5 5 5 6 5 4 5 6 8 7 6 7 8 7 4 3 3 4 3 3 3 3 3 3
2 2 2 2 2 2 3 3 4 4 4 4 4 4 4 5 5 5 5 5 5 6 6 5 6 7 8 7 8 9 9 9 7 6 3 3 3 3 3 3 4 3 3
Wind_Direction
8 6 8 8 9 10 11 4 357 353 352 352 342 333 328 324 320 314 310 308 290 285 284 278 279 284 278 278 276 274 273 267 268 282 283 286 281 285 301 298 293 288 286
2 4 4 4 7 9 4 356 353 348 347 344 336 337 333 329 327 323 312 306 294 287 286 285 285 288 289 285 278 277 274 270 269 281 287 285 275 268 277 287 298 301 291
7 9 7 5 5 2 356 351 350 345 341 340 340 335 330 328 325 318 313 313 307 297 294 287 285 285 286 290 291 285 282 285 277 274 282 286 283 283 291 291 290 291 293
3 3 358 354 352 349 349 349 346 344 341 337 334 328 326 328 324 322 323 319 314 308 301 296 291 281 280 285 284 283 287 287 282 277 279 283 283 290 289 287 291 289 293
354 353 345 342 348 349 347 346 344 344 340 334 332 332 332 328 325 331 329 320 315 313 311 302 291 288 282 281 282 282 282 277 280 276 276 281 277 287 279 285 281 296 287
341 336 337 341 344 344 341 341 340 339 337 335 329 327 327 324 327 330 326 319 317 312 307 302 295 290 290 292 292 289 283 276 273 272 272 272 275 277 284 283 286 291 283
325 327 334 336 334 334 337 339 335 332 331 329 325 326 321 318 325 328 328 320 311 304 301 300 301 305 302 296 295 298 295 290 280 271 270 271 275 275 272 272 270 274 274
319 323 328 330 327 327 329 327 326 324 321 318 317 317 316 317 323 328 330 323 312 306 305 305 299 296 300 301 297 293 288 288 284 276 269 276 279 279 269 271 275 280 288
313 315 320 321 319 321 320 320 319 318 317 315 312 314 313 312 317 325 329 318 313 312 309 308 305 301 302 306 300 295 298 302 309 302 298 298 300 300 293 278 276 277 280
307 306 310 312 308 308 309 312 313 311 311 313 312 313 307 304 310 320 326 319 316 315 312 307 302 305 305 305 298 294 293 298 306 309 310 313 314 312 308 280 259 262 274
315 315 311 308 303 301 304 308 309 309 310 310 309 310 308 306 309 317 322 321 312 309 308 308 306 310 309 306 304 298 294 302 301 305 309 305 304 305 303 298 286 266 260
320 314 309 307 306 307 306 307 310 310 309 309 309 310 313 316 316 315 317 316 313 304 301 303 303 306 308 309 310 309 312 314 307 303 298 292 289 290 296 297 296 292 280
314 307 306 308 309 309 303 304 309 310 303 304 303 302 308 314 317 321 316 313 313 312 303 304 310 314 318 321 324 324 325 320 310 301 295 294 295 292 292 291 299 303 304
302 303 306 308 309 310 305 303 301 297 296 295 297 300 305 308 312 316 315 316 317 318 315 316 323 328 330 333 333 333 332 321 307 296 295 299 303 302 295 293 290 300 305
303 303 306 304 305 307 305 299 297 288 288 295 294 296 302 305 307 313 320 317 314 309 322 329 335 335 332 329 328 329 326 321 313 307 301 299 301 301 301 306 295 290 276
301 304 305 305 306 307 307 308 304 303 309 311 311 309 306 308 315 318 322 322 323 326 338 335 328 324 319 318 319 321 321 318 314 311 303 299 298 296 301 307 303 283 275
283 291 296 299 301 305 307 308 313 324 330 330 328 325 323 324 326 327 328 330 337 349 358 329 315 312 312 314 313 310 308 310 311 307 304 302 300 300 301 303 301 294 286
288 285 284 287 291 293 295 299 302 310 318 319 327 333 335 336 336 337 339 347 353 358 343 321 315 314 313 311 309 310 309 312 311 307 303 305 304 298 294 294 295 291 283
288 285 287 289 291 292 296 299 302 305 306 309 317 327 335 336 343 348 354 359 334 330 328 318 312 310 310 309 308 307 307 304 301 301 300 301 299 299 294 288 290 297 296
286 293 303 300 304 310 314 312 309 309 311 311 314 320 326 335 339 339 347 339 327 317 315 311 309 308 309 307 307 305 305 303 300 295 294 295 295 292 292 298 297 294 295
291 300 308 308 302 303 305 304 305 308 308 310 311 317 329 333 325 323 324 324 318 310 306 304 304 304 303 302 301 299 297 297 298 297 297 297 297 295 295 296 299 299 301
282 293 300 298 300 302 300 299 300 299 302 305 311 319 330 331 320 316 315 313 309 302 297 295 296 294 291 291 290 291 291 290 292 293 293 293 293 294 297 299 301 305 306
277 292 302 302 299 298 301 298 294 294 298 302 308 313 316 313 310 308 307 306 306 306 304 297 293 296 297 291 282 276 276 278 280 280 281 285 287 288 288 289 291 297 299
279 281 286 294 296 291 288 290 291 291 294 297 300 299 299 301 301 301 302 303 305 303 300 296 289 287 291 294 288 280 276 276 275 271 268 266 272 277 279 282 285 284 289
266 264 267 271 275 277 281 285 286 288 290 291 292 293 295 296 296 296 297 299 301 300 299 296 291 288 288 289 288 284 280 282 280 270 265 262 264 266 268 274 279 287 287
262 260 262 264 264 268 272 278 282 285 286 287 287 286 287 288 289 291 293 294 297 298 297 295 290 290 290 289 287 287 284 279 273 263 254 256 259 263 267 271 276 278 282